Regional Weather Roundup
Issued by NWS Wakefield, VA

Home | Current Version | Previous Version | Graphics & Text | Print | Product List | Glossary On
Versions: 1 2 3 4 5 6 7 8 9 10 11 12 13 14 15 16 17 18 19 20 21 22 23 24 25 26 27 28 29 30 31 32 33 34 35 36 37 38 39 40 41 42 43 44 45 46 47 48 49 50
000
ASUS41 KAKQ 082015
RWRAKQ

REGIONAL WEATHER ROUNDUP
NATIONAL WEATHER SERVICE WAKEFIELD VA
300 PM EST THU DEC 08 2016

Note: "fair" indicates few or no clouds below 12,000 feet with no
significant weather and/or obstructions to visibility. * = Denotes
station may not report precipitation (e.g., rain,snow,etc.),
thunder or fog.

VAZ042-051-052>054-056-082100-
NORTHERN VIRGINIA

CITY           SKY/WX    TMP DP  RH WIND       PRES   REMARKS
WASH NATIONAL  PTSUNNY   48  18  30 W9        30.01S
DULLES         PTSUNNY   47  17  30 W21G30    30.01R
FORT BELVOIR   PTSUNNY   47  19  33 VRB5      30.01R
QUANTICO       CLOUDY    47  23  38 W8        30.04R
FREDERICKSBRG* NOT AVBL
STAFFORD*      NOT AVBL
WARRENTON      NOT AVBL
CULPEPER*      NOT AVBL
MANASSAS*        N/A    N/A N/A N/A W5        30.02
LEESBURG*      NOT AVBL
WINCHESTER     NOT AVBL
FRONT ROYAL*   NOT AVBL
LURAY*         NOT AVBL
$$

VAZ048-049-060>072-079>083-082100-
CENTRAL AND SOUTH CENTRAL VIRGINIA

CITY           SKY/WX    TMP DP  RH WIND       PRES   REMARKS
RICHMOND       PTSUNNY   51  21  30 W16       30.02R
CHESTERFIELD*  FAIR      52  19  28 NW16      30.03R
PETERSBURG*    NOT AVBL
HANOVER        SUNNY     51  22  31 NW13      30.04R
TAPPAHANNOCK*  NOT AVBL
QUINTON*       NOT AVBL
CHARLOTTSVILLE MOSUNNY   47  21  35 VRB7      30.03R
GORDONSVILLE*  NOT AVBL
ORANGE*        NOT AVBL
LOUISA*        NOT AVBL
BUMPASS*       NOT AVBL
FARMVILLE*     NOT AVBL
CREWE*         NOT AVBL
FORT PICKETT*  NOT AVBL
CHASE CITY*    NOT AVBL
CLARKSVILLE*   NOT AVBL
SOUTH HILL*    NOT AVBL
LAWRENCEVILLE* NOT AVBL
EMPORIA*       NOT AVBL
$$

VAZ088>098-082100-
SOUTHEAST VIRGINIA

CITY           SKY/WX    TMP DP  RH WIND       PRES   REMARKS
NORFOLK        CLOUDY    49  42  77 N9        30.01R
VIRGINIA BEACH CLOUDY    48  43  82 N17       30.00R
NORFOLK NAVAL  CLOUDY    50  40  68 NW12      30.03R
WEST POINT*    NOT AVBL
SALUDA*        NOT AVBL
NEWPORT NEWS   MOSUNNY   48  42  80 N5        30.01S
LANGLEY AFB    CLOUDY    48  42  80 NW8       30.01R
FORT EUSTIS    PTSUNNY   49  36  61 NW8       29.99R
WILLIAMSBURG*  NOT AVBL
HR EXEC AP*    FAIR      48  37  66 N6        30.01R
FRANKLIN*      NOT AVBL
US460-WAKEFLD  MOSUNNY   50  30  46 W3        30.02R
$$

VAZ020-022-025-037-045-082100-
WEST CENTRAL AND SOUTHWEST VIRGINIA

CITY           SKY/WX    TMP DP  RH WIND       PRES   REMARKS
STAUNTON*      NOT AVBL
WAYNESBORO*    NOT AVBL
HOT SPRINGS VA NOT AVBL
LYNCHBURG      MOSUNNY   43  20  39 W6        30.08S
DANVILLE       CLOUDY    47  20  34 NW8G23    30.10S
SOUTH BOSTON*  NOT AVBL
MARTINSVILLE   NOT AVBL
ROANOKE        PTSUNNY   45  16  31 W15G21    30.09R
BLACKSBURG     NOT AVBL
DUBLIN*        NOT AVBL
MARION*        NOT AVBL
HILLSVILLE*    NOT AVBL
RICHLANDS*     NOT AVBL
WISE*          NOT AVBL
ABINGDON*      NOT AVBL
$$

MDZ021>025-VAZ099-100-082100-
SOUTHERN MARYLAND AND THE DELMARVA PENINSULA

CITY           SKY/WX    TMP DP  RH WIND       PRES   REMARKS
PATUXENT RIVER PTSUNNY   49  34  56 W7        30.00S
BAY BRIDGE APT CLOUDY    46  23  39 NW15G22   29.99S
LEONARDTOWN    PTSUNNY   48  28  46 W14G25    30.01S
DOVER          CLOUDY    45  26  47 W14       29.96R
GEORGETOWN     CLOUDY    45  36  70 W6        29.98S
EASTON         CLOUDY    46  21  36 NW9G20    30.02S
CAMBRIDGE      PTSUNNY   45  34  65 W3        29.99S
SALISBURY      CLOUDY    43  38  82 SW6       29.99R
OCEAN CITY     CLOUDY    42  36  79 W6        29.99S
WALLOPS ISLAND PTSUNNY   43  37  79 CALM      30.00S
ACCOMACK*      NOT AVBL
$$

NCZ012>017-030>032-082100-
NORTH CENTRAL AND EASTERN NORTH CAROLINA

CITY           SKY/WX    TMP DP  RH WIND       PRES   REMARKS
ROANOKE RAPIDS NOT AVBL
RALEIGH        PTSUNNY   50  18  28 VRB7G16   30.09R
ELIZABETH CITY CLOUDY    51  39  63 NW14      30.01R
AHOSKIE*       CLOUDY    49  33  54 NW3       30.04S
EDENTON*       CLOUDY    53  40  61 NW10      30.03R
CURRITUCK*     CLOUDY    51  46  82 NW10      30.01R
KILL DEVIL HLS CLOUDY    52  50  93 W3        29.97S
MANTEO         CLOUDY    52  46  80 NW9       29.99S
CAPE HATTERAS  NOT AVBL
TARBORO*       NOT AVBL
GOLDSBORO      CLOUDY    53  28  37 NW9       30.05S
WASHINGTON     CLOUDY    51  31  45 NW10      30.05R
GREENVILLE     CLOUDY    52  32  46 NW6       30.07R
NEW BERN       MOSUNNY   55  34  45 NW12G20   30.05R
WILMINGTON     CLOUDY    56  46  69 NW15      30.04S
$$

VAZ048-082100-
ELSEWHERE

CITY           SKY/WX    TMP DP  RH WIND       PRES   REMARKS
HARRISBURG PA  NOT AVBL
BALTIMORE      PTSUNNY   45  20  36 W13G21    29.98S
ANNAPOLIS      PTSUNNY   48  20  32 W9        29.99R
ANDREWS AFB    PTSUNNY   45  18  34 W13G23    29.99R
PHILADELPHIA   CLOUDY    46  17  31 W24       29.95R
HENDERSON NC   MOSUNNY   46  18  33 NW8G21    30.07R
GREENSBORO     PTSUNNY   46  20  35 NW18      30.11R
ROCKY MOUNT    CLOUDY    50  25  37 NW13      30.07R
$$

VAZ100-082100-
MARINE

STATION/POSITION TIME  TEMP    WIND        PRES    WAVE   SWELL
                       AIR SEA DIR/SP/G            HT/PER HT/PER
                 (UTC) (F)     (DEG/KT/KT) (MB)    (FT/S) (FT/S)
BRANDYWINE LGT   1948   45     290/ 22/ 24   N/A
CAPE MAY NJ      1948   45 48  270/ 16/ 19 1014.3R
LEWES DE         1948   44 47  250/  9/ 14 1014.9R
OCEAN-CITY-INLET 1942   43 49  260/  5/  7 1015.6F
WACHAPREAGUE VA  1948   44 49  290/  2/  4 1015.9R
THOMAS POINT MD  2000   46 48  280/ 17/ 21   N/A
GOOSES REEF MD   2000   48 49  290/ 16/ 21 1016.7    1/ 3
COVE POINT MD    1948   46     310/  4/  8 1016.5R
SOLOMONS ISLAND  1942   49 51  280/  6/ 12   N/A
BISHOPS HEAD MD  1948   44 47  230/  7/  7 1016.1R
PINEY POINT MD   1948          330/  8/  9   N/A
POTOMAC MD       1950   45     260/  4/  6 1015.1R
CAMBRIDGE MD     1948   45 47  260/  8/ 11 1015.0R
LEWISETTA VA     1948   46 48  230/  2/  2 1015.7F
RAPPAHANNOCK LGT 1948          330/  8/  9 1016.5R
STINGRAY PT      1950   44     340/  6/  6 1016.5F
YORK RVR RNG VA  1948   47     340/  9/ 10 1015.9R
YORKTOWN VA      1948   47 51  330/  7/ 10 1015.9S
JAMESTOWN VA     1950   49     270/  6/  8   N/A
DOMINION TERM VA 1948   48     320/ 13/ 16 1016.1R
KIPTOPEKE VA     1948      51  350/ 12/ 16   N/A
CHES BAY BRIDGE  1948   47 52  340/ 15/ 20 1016.1R
CAPE HENRY VA    1948   46     310/ 18/ 20   N/A
WILLOUBY STN VA  1948   49     330/ 11/ 12 1017.0R
S CRANEY ISL VA  1948   48     300/  9/ 12 1016.0R
CAPE HENRY BUOY  1942      54                N/A     3/ 9   2/11
CAPE CHARLES BUO 1956      54                N/A     3/ 7
OFFSHORE WE BUOY 1951      56                N/A     3/ 8   2/11
64NM E OF VA BCH 1950   53 59  260/ 16/ 19 1014.0F   4/ 9   3/ 9
DUCK PIER NC     1948   52 54  300/ 13/ 15 1015.0R
44100 DUCK FRF   1935      56                N/A     3/11   2/11
OREGON INLET NC  1936   54 56  290/ 11/ 16 1015.3R
HATTERAS NC      1948   56 60  290/ 19/ 21 1015.5R
DIAMOND SHLS NC  1950   60 77  290/ 17/ 23 1015.0R   5/ 9   3/ 9
CAPE LOOKOUT NC  1900   56     300/ 16/ 19 1016.1R
$$



USA.gov is the U.S. government's official web portal to all federal, state and local government web resources and services.